Regional Weather Roundup
Issued by NWS Cleveland, OH

Home | Current Version | Previous Version | Text Only | Print | Product List | Glossary On
Versions: 1 2 3 4 5 6 7 8 9 10 11 12 13 14 15 16 17 18 19 20 21 22 23 24 25 26 27 28 29 30 31 32 33 34 35 36 37 38 39 40 41 42 43 44 45 46 47 48 49 50
000
ASUS41 KCLE 231310
RWRCLE
OHIO REGIONAL WEATHER ROUNDUP
NATIONAL WEATHER SERVICE WILMINGTON, OH
900 AM EDT TUE SEP 23 2014

NOTE: "FAIR" INDICATES FEW OR NO CLOUDS BELOW 12,000 FEET WITH NO
SIGNIFICANT WEATHER AND/OR OBSTRUCTIONS TO VISIBILITY.

OHZ001>008-015>018-024>027-034-035-043-044-231400-
   NORTHWEST OHIO

CITY           SKY/WX    TMP DP  RH WIND       PRES   REMARKS
DEFIANCE       SUNNY    N/A N/A N/A CALM      30.35S
FINDLAY        SUNNY     50  45  83 CALM      30.34R
TOLEDO EXPRESS SUNNY     48  45  89 CALM      30.35R
TOLEDO METCALF SUNNY     52  46  80 CALM      30.36R
LIMA           SUNNY     50  46  86 CALM      30.35R
$$

OHZ009>014-019>023-028>033-038-089-231400-
   NORTHEAST OHIO

CITY           SKY/WX    TMP DP  RH WIND       PRES   REMARKS
CLE-HOPKINS    MOSUNNY   50  44  80 SW5       30.38R
CLE-LAKEFRONT  SUNNY     51  43  74 S7        30.34S
CUY CO. ARPT   MOSUNNY   54  46  76 S7        30.36R
LORAIN-ELYRIA  SUNNY     51  44  77 SW5       30.37R
ASHTABULA      SUNNY     48  45  89 S3        30.36R
AKRON-CANTON   SUNNY     50  43  77 CALM      30.36R
WOOSTER        SUNNY     47  44  90 CALM      30.37R FOG
MANSFIELD      SUNNY     50  44  80 CALM      30.35R
YOUNGSTOWN     MOSUNNY   46  43  89 CALM      30.36R
$$

OHZ042-051>053-060>062-070>072-077>081-231400-
  SOUTHWEST OHIO

CITY           SKY/WX    TMP DP  RH WIND       PRES   REMARKS
CINC-COVINGTON SUNNY     53  46  77 VRB3      30.34R
CINC-LUNKEN    SUNNY     47  46  97 NE3       30.36R
HAMILTON       SUNNY     49  47  93 CALM      30.36R
DAYTON         SUNNY     52  45  77 CALM      30.35R
WRIGHT-PAT AFB SUNNY     47  43  85 NE2       30.35R
DAYTON GENERAL SUNNY     51  46  83 CALM      30.34R
WILMINGTON     SUNNY     49  43  80 SE3       30.35R
$$

OHZ036-037-039>041-045>050-054>059-063>069-073>076-082>088-231400-
  CENTRAL AND SOUTHEAST OHIO

CITY           SKY/WX    TMP DP  RH WIND       PRES   REMARKS
COLUMBUS       SUNNY     52  44  74 CALM      30.36R
OSU AIRPORT    SUNNY     49  45  86 CALM      30.36R
BOLTON FIELD   SUNNY     46  46 100 CALM      30.36R
RICKENBACK AFB SUNNY     45  43  90 CALM      30.36R
NEWARK         SUNNY     46  43  89 CALM      30.37R
MARION         SUNNY     48  43  82 SE3       30.36R
LANCASTER      SUNNY     46  42  86 CALM      30.36R
ZANESVILLE     SUNNY     44  40  85 CALM      30.37R
NEW PHILLY     FOG       42  42 100 CALM      30.38R VSB 3/4
$$


USA.gov is the U.S. government's official web portal to all federal, state and local government web resources and services.